Regional Weather Roundup
Issued by NWS

Home | Current Version | Previous Version | Text Only | Print | Product List | Glossary On
Versions: 1 2 3 4 5 6 7 8 9 10 11 12 13 14 15 16 17 18 19 20 21 22 23 24 25 26 27 28 29 30 31 32 33 34 35 36 37 38 39 40 41 42 43 44 45 46 47 48 49 50
000
ASUS43 KMPX 231201
RWRMN
WEATHER ROUNDUP FOR MINNESOTA
NATIONAL WEATHER SERVICE TWIN CITIES/CHANHASSEN MN
600 AM CST THU FEB 23 2017


NOTE: "FAIR" INDICATES FEW OR NO CLOUDS BELOW 12,000 FEET WITH NO
SIGNIFICANT WEATHER AND/OR OBSTRUCTIONS TO VISIBILITY. N/A MEANS
CURRENT SKY AND/OR WEATHER CONDITIONS ARE NOT AVAILABLE.

MNZ060>063-068>070-231300-
   Twin Cities Metro

CITY           SKY/WX    TMP DP  RH WIND       PRES   REMARKS
TWIN CITIES    CLOUDY    33  25  72 N10       29.90R WCI  25
6HR MIN TEMP:  33; 6HR MAX TEMP:  38;

ST PAUL        CLOUDY    33  28  81 N10       29.91R WCI  25
CRYSTAL        PTCLDY    30  24  78 N9        29.90R WCI  22
BLAINE         PTCLDY    32  27  80 N7        29.89R WCI  26
LAKEVILLE      CLOUDY    32  28  86 N10       29.89R WCI  24
EDEN PRAIRIE   MOCLDY    32  25  75 N10       29.89R WCI  24
6HR MIN TEMP:  32; 6HR MAX TEMP:  37;

SOUTH ST PAUL  CLOUDY    34  28  77 N10G16    29.89R WCI  26
LAKE ELMO      CLOUDY    32  28  86 N9        29.90R WCI  24
$$
MNZ001>005-007-008-013>017-022>024-027-028-231300-
   Northwest Minnesota

CITY           SKY/WX    TMP DP  RH WIND       PRES   REMARKS
BEMIDJI        CLOUDY    24  18  80 N6        29.97R WCI  17
HALLOCK        CLOUDY    27  21  80 N5        30.04R WCI  21
ROSEAU         CLOUDY    25  18  74 N9        29.99R WCI  15
WARROAD        CLOUDY    21  14  73 N12       29.98R WCI   9
THIEF RVR FALL CLOUDY    24  19  81 NW5       30.03  WCI  18
CROOKSTON      CLOUDY    27  19  74 N6        30.05R WCI  20
FOSSTON        MOCLDY    21  19  93 N8        30.01R WCI  12
DETROIT LAKES  CLEAR     25  23  93 CALM      29.99R
MOORHEAD       CLOUDY    28  25  86 N9        30.02S WCI  20
PARK RAPIDS    CLOUDY    25  18  74 N8        29.96R WCI  16
MAHNOMEN       FAIR      24  22  90 N6        29.99R WCI  17
$$
MNZ006-009>011-018-025>026-231300-
   North Central Minnesota

CITY           SKY/WX    TMP DP  RH WIND       PRES   REMARKS
BAUDETTE       CLEAR     20  11  68 NW13      29.95R WCI   7
FLAG ISLAND    CLOUDY    19  10  68 N21       29.97R WCI   3
INTL FALLS     CLOUDY    25  17  72 N12       29.91R WCI  14
6HR MIN TEMP:  24; 6HR MAX TEMP:  26;

WASKISH        CLOUDY    25  18  74 N7        29.97R WCI  17
BIG FORK       CLOUDY    25  18  74 N8        29.92S WCI  16
LONGVILLE      CLOUDY    21  19  93 CALM      29.96R
GRAND RAPIDS   CLOUDY    22  19  89 N10       29.95R WCI  11
CRANE LAKE     CLOUDY    25  16  68 NW5       29.92R WCI  19
ORR            CLOUDY    23  16  74 NW3       29.88S
COOK           CLOUDY    23  19  86 NW6       29.90S WCI  16
WALKER         CLOUDY    22  18  83 NW5       29.97R WCI  16
$$
MNZ012-019>021-037-231300-
   Northeast Minnesota

CITY           SKY/WX    TMP DP  RH WIND       PRES   REMARKS
DULUTH         CLOUDY    26  23  88 NW7       29.90R WCI  18
6HR MIN TEMP:  24; 6HR MAX TEMP:  33; 6HR PCP: TRACE;

ELY            CLOUDY    25  21  86 CALM      29.86R
HIBBING        CLOUDY    22  20  92 N10       29.90R WCI  11
EVELETH        CLOUDY    25  20  81 NW12      29.89R WCI  15
DULUTH HARBOR  CLEAR     28  27  93 CALM      29.94R
TWO HARBORS    CLEAR     28  25  86 CALM      29.87R
SILVER BAY     CLOUDY    28  25  86 N5        29.84R WCI  23
GRAND MARAIS     N/A     30  23  75 W3        29.85R
G MARAIS ARPRT PTCLDY    25  16  68 NW13      29.79R WCI  13
$$
MNZ029>031-032-039>041-046>048-054>057-064-231300-
   West Central Minnesota

CITY           SKY/WX    TMP DP  RH WIND       PRES   REMARKS
FERGUS FALLS   CLEAR     27  23  86 N7        30.02R WCI  19
WHEATON        CLOUDY    27  25  93 NW9       29.98F WCI  17
MORRIS         MOCLDY    28  27  93 N12       29.92F WCI  18
ALEXANDRIA     MOCLDY    27  24  89 N13       29.93S WCI  16
ELBOW LAKE     FAIR      27  25  93 N10       29.95F WCI  17
WADENA         MOCLDY    25  21  86 N6        29.95S WCI  18
GLENWOOD       PTCLDY    27  25  93 N12G17    29.92F WCI  16
APPLETON       CLOUDY    30  28  93 N8        29.93F WCI  23
BENSON         PTCLDY    30  25  80 NE10G16   29.93F WCI  21
ORTONVILLE     PTCLDY    28  25  86 CALM      29.93F
MADISON        PTCLDY    32  30  93 N12       29.93S WCI  23
WILLMAR        FAIR      30  27  86 N13       29.92S WCI  20
$$
MNZ033>034-036-042>043-049>051-058-059-231300-
   Central Minnesota

CITY           SKY/WX    TMP DP  RH WIND       PRES   REMARKS
ST CLOUD       PTCLDY    28  24  85 N12       29.90F WCI  18
6HR MIN TEMP:  28; 6HR MAX TEMP:  33;

SAUK CENTRE    FAIR      26  23  86 N10       29.92F WCI  17
PAYNESVILLE    CLOUDY    28  25  86 N9G16     29.91F WCI  20
AITKIN         CLEAR     25  19  80 NW6       29.92S WCI  18
PINE RIVER     CLOUDY    25  21  86 N6        29.99R WCI  18
BRAINERD       CLEAR     23  19  85 N8        29.94R WCI  14
STAPLES        CLOUDY    25  23  93 NW7       29.95S WCI  17
LONG PRAIRIE   FAIR      27  23  86 NW9       29.93F WCI  17
LITTLE FALLS   CLEAR     27  21  80 N5        29.94S WCI  21
LITCHFIELD     CLOUDY    30  27  86 N12       29.91R WCI  21
BUFFALO        CLOUDY    30  25  83 N9        29.92S WCI  21
MAPLE LAKE     CLOUDY    30  27  90 N12       29.91F WCI  20
HUTCHINSON     CLEAR     31  27  84 N6        29.91S WCI  25
$$
MNZ037-044-045-052-053-231300-
   East Central Minnesota

CITY           SKY/WX    TMP DP  RH WIND       PRES   REMARKS
PRINCETON      PTCLDY    28  25  86 N8        29.91R WCI  20
MORA           CLEAR     27  23  86 N6        29.92F WCI  20
CAMBRIDGE      CLEAR     30  23  74 N7        29.88S WCI  23
RUSH CITY      PTCLDY    28  25  86 N10       29.90S WCI  19
MOOSE LAKE     CLEAR     27  23  86 NW6       29.91R WCI  20
HINCKLEY       FAIR      28  27  93 N9        29.91R WCI  20
CLOQUET        CLEAR     23  21  93 NW8       29.91R WCI  14
MCGREGOR       CLOUDY    27  23  86 NW9       29.94R WCI  17
$$
MNZ071>073-080-081-089-090-097-098-231300-
   Southwest Minnesota

CITY           SKY/WX    TMP DP  RH WIND       PRES   REMARKS
MONTEVIDEO     MOCLDY    30  28  93 NE12      29.93F WCI  21
GRANITE FALLS  MOCLDY    32  28  86 N12       29.93F WCI  23
CANBY          PTCLDY    30  29  94 N10       29.93S WCI  21
MARSHALL       PTCLDY    30  27  88 N13       29.91F WCI  20
REDWOOD FALLS  PTCLDY    31  24  75 N9        29.90F WCI  23
OLIVIA         PTCLDY    32  28  86 N9        29.90F WCI  24
PIPESTONE      CLOUDY    30  25  80 NE16G23   29.85S WCI  19
WINDOM         PTCLDY    30  27  86 N17G23    29.86S WCI  18
WORTHINGTON    CLOUDY    30  26  85 N18       29.86R WCI  18
JACKSON          N/A     32  28  86 N18       29.85F WCI  20
TRACY          CLOUDY    31  30  94 N13       29.89F WCI  22
SLAYTON        CLOUDY    29  27  90 N15G24    29.86F WCI  18
$$
MNZ065>067-074>077-082>085-091>093-231300-
   South Central Minnesota

CITY           SKY/WX    TMP DP  RH WIND       PRES   REMARKS
MANKATO          N/A     33  28  81 N10       29.88S WCI  25
NEW ULM        MOCLDY    30  27  86 N8        29.88F WCI  23
ST JAMES       PTCLDY    30  28  93 N8        29.89F WCI  23
FAIRMONT       CLOUDY    32  29  88 N16G23    29.85F WCI  21
GLENCOE        CLOUDY    32  29  91 N10       29.90S WCI  23
FARIBAULT      CLOUDY    34  30  86 NW8       29.88R WCI  27
OWATONNA       CLOUDY    36  28  75 N9        29.88R
WASECA         CLOUDY    32  30  93 N13       29.88R WCI  22
ALBERT LEA     CLOUDY    36  32  87 N12       29.86R
$$
MNZ078>079-086>088-094>096-231300-
   Southeast Minnesota

CITY           SKY/WX    TMP DP  RH WIND       PRES   REMARKS
ROCHESTER      CLOUDY    35  32  88 N17       29.82R WCI  25
6HR MIN TEMP:  35; 6HR MAX TEMP:  41;

RED WING       CLOUDY    36  28  75 N8        29.87R
STANTON        CLOUDY    35  31  84 N13       29.87R WCI  26
DODGE CENTER   CLOUDY    34  30  86 N15G21    29.84R WCI  24
WINONA         CLOUDY    37  32  81 N5        29.83R
AUSTIN         CLOUDY    36  30  80 N10G16    29.84R
PRESTON        CLOUDY    35  32  90 N8        29.81R WCI  28
$$
ABBREVIATIONS USED IN REMARKS
   TC - TEMPERATURES IN CELSIUS
  WCI - WIND CHILL INDEX
   HX - HEAT INDEX
  VSB - VISIBILITY
$$




USA.gov is the U.S. government's official web portal to all federal, state and local government web resources and services.